Regional Weather Roundup
Issued by NWS Sioux Falls, SD

Home | Current Version | Previous Version | Graphics & Text | Print | Product List | Glossary Off
Versions: 1 2 3 4 5 6 7 8 9 10 11 12 13 14 15 16 17 18 19 20 21 22 23 24 25 26 27 28 29 30 31 32 33 34 35 36 37 38 39 40 41 42 43 44 45 46 47 48 49 50

000
ASUS43 KFSD 160302
RWRFSD

WEATHER ROUNDUP FOR SE SOUTH DAKOTA/SW MINNESOTA/NW IOWA
NATIONAL WEATHER SERVICE SIOUX FALLS SD
900 PM CST FRI DEC 15 2017

NOTE: "FAIR" INDICATES FEW OR NO CLOUDS BELOW 12,000 FEET WITH NO
SIGNIFICANT WEATHER AND OR OBSTRUCTIONS TO VISIBILITY.


SDZ038>040-050-052>070-160400-
SOUTHEAST SOUTH DAKOTA

CITY           SKY/WX    TMP DP  RH WIND       PRES   REMARKS
BROOKINGS      CLOUDY    34  26  72 SW7       29.61S WCI  28
CHAMBERLAIN    MOCLDY    42  30  62 CALM      29.62F
HURON          CLOUDY    35  28  75 S6        29.59F
MADISON        FAIR      37  30  75 SW12      29.62S
MITCHELL       CLOUDY    43  30  60 SW9       29.63S
SIOUX FALLS    CLOUDY    39  28  64 SW6       29.63F
WINNER         FAIR      46  26  45 SW9       29.65F
YANKTON        CLOUDY    44  27  51 SW12      29.65F
$$

MNZ071-072-080-081-089-090-097-098-160400-
SOUTHWEST MINNESOTA

CITY           SKY/WX    TMP DP  RH WIND       PRES   REMARKS
FAIRMONT       CLOUDY    37  25  61 SW6       29.68F
JACKSON        CLOUDY    36  25  64 S10       29.65F
LUVERNE        CLOUDY    34  25  69 SW9       29.64F WCI  26
MARSHALL       CLOUDY    36  26  67 CALM      29.63F
MONTEVIDEO     CLOUDY    34  30  86 S7        29.63F WCI  28
PIPESTONE      CLOUDY    36  25  64 SW10      29.61F
REDWOOD FALLS  CLOUDY    35  30  82 E7        29.65F WCI  29
WINDOM           N/A     37  21  52 S9        29.64F
WORTHINGTON    CLOUDY    37  26  64 SW15      29.63F
$$

IAZ001>003-012>014-020>022-031-032-NEZ013-014-SDZ071-160400-
NORTHWEST IOWA

CITY           SKY/WX    TMP DP  RH WIND       PRES   REMARKS
CHEROKEE       PTCLDY    36  26  67 S6        29.69F
DENISON        CLOUDY    36  25  64 S9        29.75F
ESTHERVILLE    CLOUDY    37  25  61 SW14      29.66F
LE MARS        CLOUDY    36  28  75 S7        29.68F
ORANGE CITY    CLOUDY    37  30  75 S7        29.66F
SHELDON        CLOUDY    37  27  65 S12G18    29.64F
SIOUX CITY     CLOUDY    39  27  62 S6        29.70F
SPENCER        CLOUDY    38  25  59 SW12      29.66F
STORM LAKE     PTCLDY    36  25  64 SW12      29.70F
$$

ABBREVIATIONS USED IN REMARKS
   TC - TEMPERATURE IN CELSIUS
  WCI - WIND CHILL INDEX
   HX - HEAT INDEX
  VSB - VISIBILITY





USA.gov is the U.S. government's official web portal to all federal, state and local government web resources and services.